Date,TemperatureHighF,TemperatureAvgF,TemperatureLowF,DewpointHighF,DewpointAvgF,DewpointLowF,HumidityHigh,HumidityAvg,HumidityLow,PressureMaxIn,PressureMinIn,WindSpeedMaxMPH,WindSpeedAvgMPH,GustSpeedMaxMPH,PrecipitationSumIn
2014-3-1,17.3,9.7,2.8,14.1,2.4,-7.1,87,72,56,30.09,29.72,19,6,19,0.00
2014-3-2,7.9,0.9,-4.8,-6.8,-15.6,-20.4,64,46,32,30.20,30.08,13,7,15,0.00
2014-3-3,17.2,4.5,-8.6,-0.7,-11.3,-20.4,62,48,32,30.23,30.00,14,4,14,0.02
2014-3-4,21.9,14.8,7.7,11.7,6.4,-0.9,85,70,51,30.00,29.85,11,4,11,0.00
2014-3-5,21.4,14.3,5.2,12.4,8.1,-1.1,89,76,61,30.16,29.92,16,6,16,0.02
2014-3-6,27.9,14.7,3.4,14.7,7.6,-2.1,86,74,54,30.13,29.68,14,6,16,0.03
2014-3-7,42.9,31.0,15.7,30.7,23.2,10.1,83,73,56,29.70,29.50,21,7,21,0.03
2014-3-8,34.7,28.5,20.2,27.6,20.0,11.4,87,71,49,29.92,29.69,18,4,18,0.00
2014-3-9,39.5,27.3,15.7,32.0,18.7,11.1,83,70,55,29.89,29.39,26,8,27,0.00
2014-3-10,57.8,45.7,37.0,36.0,33.3,30.8,80,63,43,29.39,29.25,13,4,13,0.00
2014-3-11,42.9,38.7,34.3,35.4,32.8,30.5,95,80,63,29.49,29.30,19,4,19,0.01
2014-3-12,34.1,26.3,15.4,30.6,18.7,5.8,90,74,47,29.78,29.45,20,6,20,0.00
2014-3-13,40.1,25.4,13.1,34.4,17.2,4.8,89,71,59,29.78,29.38,26,6,26,0.00
2014-3-14,48.2,40.8,34.3,34.5,30.3,25.2,85,67,48,29.49,29.18,28,9,28,0.00
2014-3-15,37.6,31.0,24.4,25.4,19.9,16.4,81,64,47,29.96,29.49,16,4,16,0.00
2014-3-16,27.6,19.1,9.3,21.6,9.6,0.5,82,66,51,30.11,29.84,24,8,24,0.00
2014-3-17,35.8,23.1,11.1,23.4,13.6,6.1,82,68,43,29.84,29.40,23,7,23,0.00
2014-3-18,44.8,34.5,25.7,33.4,28.6,22.7,91,79,58,29.48,29.34,20,9,20,0.00
2014-3-19,35.5,33.3,31.3,34.5,29.9,20.7,97,88,66,29.64,29.25,23,6,23,0.00
2014-3-20,46.2,34.4,26.0,26.6,23.9,21.5,91,67,41,29.71,29.63,12,3,12,0.00
2014-3-21,52.6,38.2,26.7,39.2,29.3,20.9,83,71,56,29.66,29.36,22,7,22,0.00
2014-3-22,36.8,30.0,17.8,28.1,17.6,5.5,78,61,37,30.07,29.54,28,8,28,0.00
2014-3-23,30.9,19.7,11.1,8.2,4.9,2.4,68,53,35,30.16,30.04,15,4,15,0.00
2014-3-24,34.7,24.5,14.6,24.2,13.1,5.4,89,63,38,30.06,29.71,22,4,22,0.00
2014-3-25,27.2,20.2,13.1,18.6,6.1,0.8,76,55,33,29.92,29.70,23,7,23,0.00
2014-3-26,36.3,25.0,11.6,22.1,12.1,1.6,74,58,43,29.96,29.51,27,7,27,0.00
2014-3-27,45.2,38.1,33.1,44.4,34.8,21.7,100,89,54,29.51,29.03,26,10,37,0.00
2014-3-28,41.5,34.8,30.7,40.7,30.3,27.0,97,84,63,29.84,29.06,20,5,20,0.00
2014-3-29,50.1,37.3,28.7,30.2,27.3,22.4,90,69,42,29.94,29.84,15,3,15,0.01
2014-3-30,59.3,42.5,26.9,38.5,29.7,18.1,77,61,44,29.90,29.61,26,8,26,0.00
2014-3-31,65.0,52.4,42.1,44.7,39.0,33.4,76,61,43,29.62,29.22,32,11,37,0.00